[[{"header":{"parameterUnit":"m.s-1","parameterCategory":1,"la1":30.2991,"la2":30.254,"lo1":-89.0895,"lo2":-89.0444,"dy":0.0017,"dx":0.0017,"nx":28,"ny":28,"refTime":"2025-11-18T09:00:00:Z","depth":0,"parameterNumber":2,"parameterNumberName":"U-component_of_WINDS"},"data":[0,0,0,0,0,0,0,0,0,0,0,0,0,0,0,0,0,0,0,0,0,0,0,0,0,0,0,0,0,0,0,0,0,0,0,0,0,0,0,0,0,0,0,0,0,0,0,0,0,0,0,0,0,0,0,0,0,0,-0.7952,-0.7952,0,-0.7919,-0.7918,-0.7918,-0.789,-0.7889,-0.7889,-0.7889,-0.7851,-0.785,-0.785,0,0,0,0,0,0,0,0,0,0,0,0,0,-0.7991,-0.7991,-0.7953,-0.7952,-0.7952,-0.7919,-0.7918,-0.7918,-0.789,-0.7889,-0.7889,-0.7889,-0.7851,-0.7851,-0.785,0,0,0,0,0,0,0,0,0,0,0,0,0,-0.7967,-0.799,-0.7953,-0.7934,-0.7932,-0.7919,-0.7918,-0.7918,-0.789,-0.7889,-0.7889,-0.7889,-0.7852,-0.7851,-0.785,-0.7851,0,0,-0.7846,-0.7846,0,0,0,0,0,0,0,0,-0.7969,-0.7966,-0.7937,-0.7935,-0.7933,-0.7908,-0.7918,-0.7895,-0.789,-0.7906,-0.7889,-0.7888,-0.787,-0.7868,-0.7862,-0.785,-0.7848,-0.7846,-0.7845,-0.7845,-0.7845,0,0,0,0,0,0,0,-0.797,-0.7967,-0.7939,-0.7937,-0.7934,-0.7926,-0.7923,-0.7913,-0.7891,-0.7904,-0.7902,-0.7899,-0.7869,-0.7863,-0.7861,-0.7847,-0.7846,-0.7845,-0.7844,-0.7844,-0.7835,-0.7836,0,0,0,0,0,0,-0.7975,-0.7969,-0.794,-0.7938,-0.795,-0.7926,-0.7922,-0.7916,-0.7891,-0.7886,-0.7899,-0.7898,-0.7865,-0.7862,-0.7859,-0.786,-0.7845,-0.7844,-0.7843,-0.7835,-0.7835,-0.7836,0,0,0,0,0,0,-0.7976,-0.7973,-0.7941,-0.7953,-0.7948,-0.7926,-0.792,-0.7916,-0.791,-0.7887,-0.7882,-0.7898,-0.7865,-0.7861,-0.7854,-0.7859,-0.7843,-0.7842,-0.7834,-0.7835,-0.7835,-0.7862,0,0,0,0,0,0,-0.7978,-0.7974,-0.7974,-0.7953,-0.7948,-0.7937,-0.792,-0.7916,-0.7909,-0.7906,-0.7884,-0.788,-0.7864,-0.7856,-0.7853,-0.7857,-0.7841,-0.7834,-0.7835,-0.7835,-0.786,-0.7863,-0.7866,0,0,0,0,0,-0.7979,-0.7982,-0.7975,-0.7971,-0.7949,-0.7937,-0.7934,-0.7917,-0.7909,-0.791,-0.7895,-0.7881,-0.7859,-0.7855,-0.7852,-0.7855,-0.7833,-0.7834,-0.7835,-0.7859,-0.7863,-0.7866,0,0,0,0,0,0,-0.8004,-0.7979,-0.797,-0.7967,-0.7955,-0.7933,-0.7933,-0.7921,-0.791,-0.7908,-0.7886,-0.7881,-0.7876,-0.7865,-0.7862,-0.7856,-0.7844,-0.7844,-0.7863,-0.7867,-0.7869,-0.7872,-0.7841,0,0,0,0,0,-0.8009,-0.8003,-0.7981,-0.7981,-0.7975,-0.7955,-0.795,-0.7937,-0.7923,-0.7917,-0.7902,-0.7888,-0.7878,-0.7872,-0.7861,-0.7859,-0.7853,-0.786,-0.7862,-0.7864,-0.7865,-0.7863,-0.7866,-0.7839,-0.7839,-0.7839,0,0,-0.8019,-0.8005,-0.8002,-0.7985,-0.7974,-0.7968,-0.7951,-0.7944,-0.7939,-0.7916,-0.7909,-0.7897,-0.788,-0.7876,-0.7873,-0.7866,-0.7871,-0.7866,-0.7868,-0.7867,-0.7864,-0.7867,-0.7869,-0.784,-0.7839,-0.7839,0,0,-0.8035,-0.8024,-0.8022,-0.8012,-0.7996,-0.7983,-0.7982,-0.7963,-0.7954,-0.7947,-0.793,-0.7923,-0.7906,-0.7895,-0.7887,-0.7899,-0.7886,-0.7896,-0.791,-0.7909,-0.7911,-0.7912,-0.7917,-0.7919,-0.7897,-0.7897,-0.7897,0,-0.8049,-0.804,-0.8022,-0.8018,-0.8011,-0.7991,-0.7989,-0.7979,-0.796,-0.7955,-0.7949,-0.7928,-0.7915,-0.7907,-0.7911,-0.7905,-0.7904,-0.7899,-0.7912,-0.7914,-0.7915,-0.7919,-0.7921,-0.7898,-0.7898,-0.7898,-0.7898,0,-0.8059,-0.8052,-0.8053,-0.8036,-0.8029,-0.8026,-0.8008,-0.8002,-0.7991,-0.7979,-0.7971,-0.7955,-0.7942,-0.7939,-0.7927,-0.793,-0.7927,-0.7916,-0.7904,-0.7919,-0.7923,-0.7924,-0.79,-0.79,-0.7899,-0.7899,0,0,-0.8088,-0.8063,-0.8063,-0.8056,-0.8037,-0.8032,-0.8027,-0.8015,-0.8011,-0.7999,-0.7994,-0.7981,-0.7972,-0.7963,-0.795,-0.7949,-0.796,-0.7938,-0.7937,-0.7943,-0.7962,-0.797,-0.7973,-0.7951,-0.7952,-0.7952,-0.7964,0,-0.8101,-0.8093,-0.8077,-0.8074,-0.8068,-0.805,-0.8046,-0.8034,-0.8022,-0.8015,-0.8001,-0.7993,-0.7981,-0.7975,-0.7973,-0.7959,-0.7964,-0.7958,-0.7946,-0.7946,-0.7951,-0.7974,-0.7982,-0.7995,-0.7965,-0.7965,-0.7965,0,-0.8114,-0.8104,-0.8101,-0.8083,-0.808,-0.8077,-0.8065,-0.8058,-0.8044,-0.8036,-0.8027,-0.8013,-0.8007,-0.7996,-0.7987,-0.7984,-0.7978,-0.797,-0.797,-0.7968,-0.7957,-0.7973,-0.7998,-0.8,-0.7967,-0.7967,-0.7967,0,-0.8136,-0.8122,-0.8118,-0.8112,-0.8092,-0.809,-0.8081,-0.8067,-0.8061,-0.805,-0.8045,-0.8034,-0.8027,-0.8018,-0.8001,-0.7995,-0.7994,-0.7982,-0.7987,-0.7987,-0.7987,-0.7987,-0.8012,-0.7984,-0.7984,-0.7984,-0.7984,0,-0.8151,-0.815,-0.8128,-0.8125,-0.8123,-0.8106,-0.8104,-0.8093,-0.8081,-0.8076,-0.8059,-0.8054,-0.8032,-0.8025,-0.8011,-0.8006,-0.8003,-0.7996,-0.7993,-0.7998,-0.7999,-0.7993,-0.7992,-0.7984,-0.7984,-0.7984,-0.7984,0,-0.8175,-0.816,-0.8155,-0.8137,-0.8132,-0.8131,-0.8115,-0.8112,-0.81,-0.8094,-0.8091,-0.8072,-0.8063,-0.8045,-0.803,-0.8022,-0.8019,-0.8013,-0.8024,-0.8022,-0.8028,-0.8028,-0.805,-0.8052,-0.8023,-0.8024,-0.8024,0,-0.8186,-0.8185,-0.8167,-0.8163,-0.8155,-0.8148,-0.8143,-0.8125,-0.8119,-0.8104,-0.8103,-0.8092,-0.8083,-0.8069,-0.8053,-0.8042,-0.8035,-0.8044,-0.8033,-0.8039,-0.8035,-0.8036,-0.8035,-0.8046,-0.8046,-0.8047,-0.8047,0,-0.8207,-0.82,-0.8192,-0.8183,-0.8176,-0.8168,-0.8158,-0.8155,-0.8135,-0.813,-0.8121,-0.8114,-0.81,-0.8089,-0.8076,-0.8066,-0.8053,-0.8051,-0.8051,-0.8056,-0.8063,-0.8059,-0.8031,-0.805,-0.805,-0.8049,-0.8049,-0.8049,-0.8224,-0.8223,-0.821,-0.8203,-0.8194,-0.8185,-0.8182,-0.817,-0.8162,-0.815,-0.814,-0.8132,-0.8118,-0.8099,-0.809,-0.8083,-0.8077,-0.8078,-0.8078,-0.8078,-0.8081,-0.8064,-0.8081,-0.8081,-0.808,-0.808,-0.808,0,-0.8245,-0.8236,-0.8229,-0.8217,-0.8211,-0.8201,-0.8189,-0.8185,-0.8178,-0.8167,-0.8159,-0.8149,-0.8139,-0.8123,-0.8112,-0.8109,-0.8103,-0.8107,-0.8107,-0.8105,-0.8087,-0.8087,-0.8112,-0.8112,-0.8112,-0.8112,-0.8112,-0.8112,-0.8254,-0.8251,-0.8243,-0.8235,-0.8226,-0.8219,-0.8213,-0.8205,-0.8196,-0.8186,-0.8178,-0.8169,-0.8155,-0.8143,-0.8134,-0.8129,-0.8126,-0.8132,-0.8125,-0.8109,-0.8106,-0.8103,-0.8104,-0.8131,-0.8131,-0.8144,-0.8144,-0.8144]},{"header":{"parameterUnit":"m.s-1","parameterCategory":1,"la1":30.2991,"la2":30.254,"lo1":-89.0895,"lo2":-89.0444,"dy":0.0017,"dx":0.0017,"nx":28,"ny":28,"refTime":"2025-11-18T09:00:00:Z","depth":0,"parameterNumber":3,"parameterNumberName":"V-component_of_WINDS"},"data":[0,0,0,0,0,0,0,0,0,0,0,0,0,0,0,0,0,0,0,0,0,0,0,0,0,0,0,0,0,0,0,0,0,0,0,0,0,0,0,0,0,0,0,0,0,0,0,0,0,0,0,0,0,0,0,0,0,0,1.6943,1.6942,0,1.6852,1.6851,1.685,1.6818,1.6818,1.6819,1.6819,1.6719,1.6716,1.6713,0,0,0,0,0,0,0,0,0,0,0,0,0,1.7081,1.7078,1.6943,1.6942,1.6941,1.6852,1.6851,1.685,1.6818,1.6818,1.6819,1.6819,1.672,1.6716,1.6713,0,0,0,0,0,0,0,0,0,0,0,0,0,1.7008,1.7078,1.6943,1.6914,1.6911,1.6852,1.6851,1.6849,1.6818,1.6818,1.6819,1.6819,1.6721,1.6717,1.6712,1.6673,0,0,1.6698,1.6696,0,0,0,0,0,0,0,0,1.7012,1.7003,1.692,1.6916,1.6912,1.6847,1.6863,1.679,1.6818,1.6853,1.6819,1.682,1.6761,1.6753,1.6734,1.6669,1.6664,1.6698,1.6695,1.6693,1.6692,0,0,0,0,0,0,0,1.7017,1.7007,1.6907,1.6918,1.6914,1.6903,1.6894,1.6849,1.6804,1.685,1.6847,1.6837,1.6758,1.6739,1.6732,1.6663,1.6698,1.6694,1.6691,1.6689,1.6557,1.6556,0,0,0,0,0,0,1.7028,1.7011,1.6909,1.6904,1.6965,1.69,1.689,1.6867,1.6805,1.6796,1.6837,1.6836,1.6746,1.6737,1.6728,1.6676,1.6693,1.6689,1.6686,1.6558,1.6557,1.6556,0,0,0,0,0,0,1.7031,1.702,1.6913,1.6957,1.6943,1.6897,1.6873,1.6865,1.6845,1.6795,1.6787,1.6826,1.6746,1.6734,1.6687,1.6673,1.6687,1.6683,1.6559,1.6558,1.6557,1.6574,0,0,0,0,0,0,1.7036,1.7021,1.7008,1.6957,1.694,1.6876,1.6872,1.6863,1.6839,1.6837,1.6782,1.6774,1.6746,1.6694,1.6683,1.6667,1.6679,1.656,1.6558,1.6557,1.6575,1.6574,1.6573,0,0,0,0,0,1.7041,1.7015,1.7007,1.6995,1.6923,1.6876,1.6866,1.6836,1.6838,1.6822,1.679,1.6775,1.6676,1.6689,1.6676,1.6659,1.6561,1.6559,1.6557,1.6575,1.6574,1.6573,0,0,0,0,0,0,1.7064,1.7008,1.6999,1.6957,1.6921,1.687,1.6851,1.6837,1.6798,1.6798,1.676,1.6748,1.6703,1.6676,1.6692,1.6616,1.6617,1.6613,1.6636,1.6634,1.6633,1.664,1.6676,0,0,0,0,0,1.7065,1.7033,1.6985,1.6952,1.6935,1.6896,1.6874,1.6855,1.6815,1.6799,1.6763,1.6724,1.6683,1.6657,1.6618,1.6571,1.6557,1.6552,1.6551,1.6551,1.6547,1.6517,1.6514,1.655,1.655,1.655,0,0,1.7065,1.703,1.7012,1.6956,1.6926,1.6891,1.6884,1.6848,1.682,1.6793,1.6746,1.6718,1.6671,1.6624,1.6601,1.66,1.6534,1.6549,1.6549,1.6545,1.6515,1.6511,1.6508,1.6549,1.6549,1.6549,0,0,1.7047,1.7019,1.6988,1.6958,1.6914,1.6888,1.688,1.6831,1.6812,1.6765,1.6743,1.6709,1.6641,1.6608,1.6582,1.655,1.6533,1.6538,1.6532,1.6504,1.6501,1.6498,1.6484,1.648,1.6534,1.6534,1.6534,0,1.7052,1.7001,1.6973,1.6938,1.6912,1.6888,1.6855,1.6826,1.677,1.6752,1.6753,1.6665,1.6632,1.6575,1.6567,1.6548,1.6535,1.6543,1.6504,1.6501,1.6498,1.6484,1.6479,1.6535,1.6535,1.6535,1.6535,0,1.7009,1.6973,1.6953,1.6901,1.6874,1.6839,1.6803,1.6778,1.676,1.6733,1.6684,1.6643,1.6593,1.6579,1.6561,1.6518,1.6518,1.6512,1.6512,1.6496,1.6482,1.6476,1.6536,1.6535,1.6535,1.6535,0,0,1.7003,1.6936,1.6929,1.6904,1.6852,1.6823,1.6786,1.674,1.6718,1.6679,1.6645,1.6588,1.6581,1.6552,1.6529,1.6505,1.6478,1.6501,1.6499,1.6496,1.6425,1.6429,1.6423,1.6468,1.6467,1.6466,1.6428,0,1.6977,1.6913,1.6886,1.6833,1.6798,1.6774,1.6741,1.6704,1.6677,1.6641,1.6611,1.657,1.6566,1.6547,1.6522,1.6487,1.6463,1.649,1.6433,1.6431,1.6443,1.6416,1.642,1.6386,1.6423,1.6422,1.6421,0,1.6939,1.6902,1.6846,1.6797,1.6781,1.6752,1.6706,1.6674,1.663,1.6612,1.6578,1.6557,1.6514,1.6518,1.6456,1.6475,1.645,1.6429,1.6427,1.6418,1.6424,1.6405,1.6375,1.6369,1.6413,1.6413,1.6414,0,1.6938,1.6874,1.6831,1.6811,1.6753,1.6733,1.6707,1.6665,1.6638,1.6596,1.6578,1.6532,1.6505,1.6469,1.6434,1.6441,1.6374,1.6376,1.6355,1.6355,1.634,1.6341,1.6304,1.6328,1.6328,1.6328,1.6328,0,1.6911,1.6877,1.683,1.6804,1.6764,1.6731,1.6692,1.6664,1.6625,1.6591,1.6567,1.6534,1.6492,1.6452,1.6425,1.6376,1.6365,1.6346,1.6339,1.6347,1.6349,1.6329,1.6329,1.6327,1.6327,1.6327,1.6328,0,1.6902,1.687,1.6822,1.6771,1.6757,1.673,1.6684,1.6656,1.6628,1.6584,1.6572,1.6527,1.6479,1.6442,1.638,1.6361,1.6308,1.6301,1.6324,1.6319,1.6299,1.6301,1.6245,1.6235,1.6269,1.6269,1.6268,0,1.6887,1.686,1.6806,1.6782,1.6758,1.6719,1.6692,1.6658,1.663,1.6577,1.6554,1.6505,1.6464,1.6389,1.6349,1.63,1.629,1.6274,1.6282,1.6291,1.6286,1.6287,1.6283,1.6272,1.6272,1.6272,1.6272,0,1.6861,1.6846,1.6809,1.6765,1.6733,1.6696,1.6659,1.664,1.6598,1.6567,1.652,1.6488,1.6424,1.6375,1.6322,1.6292,1.6273,1.627,1.6262,1.6269,1.6282,1.6272,1.6318,1.6271,1.6271,1.6271,1.6271,1.6271,1.6847,1.6821,1.6779,1.6737,1.6705,1.667,1.6641,1.6609,1.6569,1.6516,1.6498,1.6448,1.6401,1.6329,1.6298,1.6256,1.6255,1.6244,1.624,1.6238,1.6237,1.6291,1.6247,1.6247,1.6247,1.6246,1.6246,0,1.6818,1.6789,1.6751,1.67,1.6666,1.6655,1.6612,1.6583,1.654,1.65,1.646,1.6403,1.6355,1.631,1.6259,1.6233,1.6223,1.6221,1.6221,1.6213,1.6243,1.6254,1.6229,1.6229,1.6229,1.6229,1.6229,1.6229,1.6799,1.6754,1.6733,1.6671,1.6641,1.6594,1.657,1.6536,1.6503,1.6442,1.6402,1.6374,1.6331,1.6275,1.6229,1.6217,1.6197,1.6197,1.6182,1.621,1.6212,1.6214,1.6224,1.6193,1.6193,1.6155,1.6155,1.6155]}]]